Location: Noverd
(38.0910°N, 121.6877°W)
Time: 06:22:14
(UTC+00:00)

NOSS 3-1 (C) - Pass Details

Date: 13 February 2026
Orbit: 618 x 1583 km, 63.4° (Epoch: 10 January)

Event Time Altitude Azimuth Distance (km) Brightness Sun altitude
Exits shadow 13:23:41 39° 250° (WSW) 995 3.1 -19.3°
Maximum altitude 13:25:06 57° 307° (NW) 811 2.8 -19.0°
Drops below altitude 10° 13:30:16 10° 26° (NNE) 2,357 5.8 -18.0°
Sets 13:33:00 0° 30° (NNE) 3,430 6.7 -17.5°
